Flag for Cyprus Weather past 2 weeks in Larnaca, Cyprus

Now
86 °F

Passing clouds.


Feels Like: 91 °F
Forecast: 68 / 94 °F
Wind: 21 mph from Southwest

Location: Larnaca Airport

Current Time: Jul 4, 2015 at 3:49:18 PM

Latest Report: Jul 4, 2015 at 3:00 PM


Visibility: N/A

Pressure: 29.83 "Hg

Humidity: 59%

Dew point: 70 °F

Location of LarnacaLocation

Historic Weather in Larnaca — Graph

°F

Larnaca temperature yesterday

Maximum temperature yesterday: 88 °F (at 11:30 AM)
Minimum temperature yesterday: 70 °F (at 5:00 AM)
Average temperature yesterday: 80 °F

Past Weeks' High & Low Weather Summary

 TemperatureHumidityPressure
High91 °F (Jul 2, 3:30 PM)100% (Jun 25, 10:00 PM)29.98 "Hg (Jun 25, 10:00 PM)
Low66 °F (Jun 23, 5:00 AM)27% (Jul 3, 11:30 AM)29.62 "Hg (Jun 19, 2:00 PM)
Average77 °F68%29.79 "Hg
* Reported Jun 19 2:00 PM — Jul 4 2:30 PM, Larnaca, Weather by CustomWeather, © 2015

Note: Actual official high and low records may vary slightly from our data, if they occured in-between our weather recording intervals... More about our weather records

Advertising

Larnaca weather history for previous 24 hours

 ConditionsComfort  
Time TempWeatherWind HumidityBarometerVisibility
2:30 PM
Sat, Jul 4
86 °FPassing clouds.21 mph62%29.86 "HgN/A
2:00 PM86 °FPassing clouds.18 mph59%29.86 "HgN/A
1:30 PM86 °FPassing clouds.18 mph59%29.86 "HgN/A
1:00 PM84 °FPassing clouds.17 mph62%29.86 "HgN/A
12:30 PM84 °FPassing clouds.17 mph62%29.86 "HgN/A
12:00 PM84 °FPassing clouds.17 mph62%29.86 "HgN/A
11:30 AM84 °FPassing clouds.16 mph66%29.86 "HgN/A
11:00 AM82 °FPassing clouds.16 mph66%29.86 "HgN/A
10:30 AM82 °FPassing clouds.16 mph62%29.86 "HgN/A
10:00 AM82 °FPassing clouds.15 mph66%29.86 "HgN/A
9:30 AM81 °FPassing clouds.12 mph70%29.86 "HgN/A
9:00 AM81 °FPassing clouds.13 mph74%29.86 "HgN/A
8:30 AM81 °FPassing clouds.12 mph70%29.86 "HgN/A
8:00 AM79 °FPassing clouds.12 mph79%29.86 "HgN/A
7:30 AM77 °FPassing clouds.9 mph79%29.86 "HgN/A
7:00 AM75 °FPassing clouds.7 mph78%29.83 "HgN/A
6:30 AM72 °FPassing clouds.3 mph83%29.83 "HgN/A
6:00 AM70 °FPassing clouds.2 mph78%29.83 "Hg5 mi
5:30 AM70 °FPassing clouds.5 mph88%29.83 "Hg4 mi
5:00 AM73 °FClear.6 mph89%29.83 "Hg4 mi
4:30 AM72 °FClear.6 mph94%29.83 "Hg4 mi
4:00 AM73 °FClear.7 mph94%29.83 "Hg4 mi
3:30 AM73 °FClear.7 mph94%29.83 "Hg4 mi
3:00 AM73 °FClear.7 mph94%29.83 "Hg4 mi
2:30 AM73 °FClear.7 mph94%29.83 "Hg5 mi
2:00 AM73 °FClear.7 mph94%29.83 "Hg10 mi
1:30 AM75 °FClear.7 mph89%29.83 "Hg10 mi
1:00 AM73 °FClear.6 mph94%29.83 "Hg10 mi
12:30 AM75 °FClear.5 mph89%29.86 "Hg10 mi
12:00 AM75 °FClear.7 mph83%29.86 "Hg10 mi
11:30 PM
Fri, Jul 3
75 °FClear.6 mph89%29.86 "Hg10 mi
11:00 PM75 °FClear.7 mph89%29.86 "Hg10 mi
10:30 PM75 °FClear.7 mph89%29.86 "Hg10 mi
10:00 PM77 °FClear.8 mph83%29.86 "Hg10 mi
9:30 PM77 °FClear.12 mph79%29.83 "Hg10 mi
9:00 PM77 °FSunny.14 mph83%29.83 "Hg10 mi
8:30 PM77 °FSunny.16 mph83%29.83 "Hg10 mi
8:00 PM79 °FSunny.18 mph79%29.83 "Hg10 mi
7:30 PM79 °FSunny.16 mph79%29.83 "Hg10 mi
7:00 PM81 °FSunny.16 mph74%29.83 "Hg10 mi
6:30 PM82 °FPassing clouds.14 mph66%29.83 "HgN/A
6:00 PM84 °FPassing clouds.15 mph62%29.83 "HgN/A
5:30 PM84 °FPassing clouds.16 mph58%29.83 "HgN/A
5:00 PM86 °FPassing clouds.15 mph55%29.83 "HgN/A
4:30 PM86 °FPassing clouds.14 mph52%29.83 "HgN/A
4:00 PM86 °FPassing clouds.16 mph55%29.83 "HgN/A
3:30 PM88 °FPassing clouds.14 mph40%29.83 "HgN/A
3:00 PM88 °FPassing clouds.12 mph35%29.83 "HgN/A
Weather by CustomWeather, © 2015

See weather overviewHow to use our weather pages